Temp
-7 -7 -7 -7 -7 -7 -7 -7 -7 -7 -7 -7 -6 -6 -6 -6 -6 -6 -6 -7 -7 -7 -6 -6 -6 -7 -7 -7 -7 -7 -7 -7 -7 -6 -6 -6 -6 -6 -6 -6 -6 -6 -6 -6 -5 -5 -5 -5 -6 -6 -6 -6 -6 -6 -6 -6 -6 -6 -6 -6 -6 -6 -6 -6 -6 -6 -6 -6 -6 -6 -6 -6 -6 -6
-7 -7 -7 -7 -7 -7 -7 -7 -7 -7 -7 -7 -6 -6 -6 -6 -6 -6 -6 -6 -6 -7 -7 -7 -7 -7 -7 -7 -7 -7 -7 -7 -7 -6 -6 -6 -6 -6 -6 -6 -6 -6 -6 -6 -6 -6 -6 -5 -5 -5 -6 -6 -6 -6 -6 -6 -6 -6 -6 -6 -6 -6 -6 -6 -6 -6 -6 -6 -6 -6 -6 -6 -6 -6
-7 -7 -7 -7 -7 -7 -7 -7 -7 -7 -7 -7 -7 -7 -6 -6 -6 -6 -6 -6 -6 -6 -7 -7 -8 -8 -7 -7 -7 -7 -7 -7 -6 -6 -6 -6 -6 -6 -6 -6 -6 -6 -6 -6 -6 -6 -6 -6 -6 -6 -6 -6 -6 -6 -6 -6 -6 -6 -6 -6 -6 -6 -6 -6 -6 -6 -6 -6 -6 -6 -6 -6 -6 -6
-7 -7 -7 -7 -7 -7 -7 -7 -7 -7 -7 -7 -7 -7 -7 -6 -6 -6 -6 -6 -6 -6 -6 -6 -7 -7 -7 -7 -7 -7 -7 -6 -6 -6 -6 -6 -6 -6 -6 -6 -6 -6 -6 -7 -7 -7 -6 -6 -6 -6 -6 -6 -6 -6 -6 -6 -6 -6 -6 -6 -6 -6 -6 -6 -6 -6 -6 -6 -6 -6 -6 -6 -6 -6
-7 -7 -7 -7 -7 -7 -7 -7 -7 -7 -7 -7 -7 -7 -7 -6 -6 -6 -6 -6 -6 -6 -6 -6 -6 -6 -6 -6 -6 -6 -6 -6 -6 -6 -6 -6 -6 -6 -6 -6 -6 -6 -6 -7 -7 -7 -7 -7 -7 -6 -6 -6 -6 -6 -6 -6 -6 -6 -6 -6 -6 -6 -6 -6 -6 -7 -7 -7 -7 -7 -7 -7 -7 -7
-7 -7 -7 -7 -7 -7 -7 -7 -7 -7 -7 -7 -7 -7 -6 -6 -6 -6 -6 -6 -6 -6 -6 -6 -6 -6 -6 -5 -5 -5 -6 -6 -6 -6 -6 -6 -6 -6 -6 -6 -6 -6 -6 -6 -6 -7 -7 -7 -7 -7 -6 -6 -6 -6 -6 -6 -6 -6 -6 -6 -6 -6 -6 -6 -6 -6 -6 -7 -7 -7 -7 -7 -7 -7
-7 -7 -7 -7 -7 -7 -7 -7 -7 -7 -7 -7 -7 -7 -6 -6 -6 -6 -6 -6 -6 -6 -6 -6 -6 -6 -6 -6 -6 -6 -6 -6 -6 -6 -6 -6 -6 -6 -6 -6 -6 -6 -6 -6 -6 -6 -7 -7 -7 -7 -7 -7 -7 -6 -6 -6 -6 -6 -6 -6 -6 -6 -6 -7 -7 -7 -7 -7 -7 -7 -7 -7 -7 -7
-7 -7 -7 -7 -7 -7 -7 -7 -7 -7 -7 -7 -7 -7 -7 -6 -6 -6 -6 -6 -6 -6 -6 -6 -7 -7 -7 -6 -6 -6 -6 -6 -6 -6 -6 -6 -6 -6 -6 -6 -6 -6 -6 -6 -6 -6 -6 -7 -7 -7 -7 -7 -7 -7 -7 -6 -6 -6 -6 -6 -6 -6 -6 -7 -7 -7 -7 -7 -7 -7 -7 -7 -7 -7
-7 -7 -6 -6 -7 -7 -7 -7 -7 -7 -7 -7 -7 -7 -7 -7 -7 -7 -7 -7 -7 -7 -6 -6 -6 -7 -7 -7 -6 -6 -6 -6 -6 -6 -6 -6 -6 -6 -6 -6 -6 -6 -6 -6 -6 -6 -6 -6 -6 -6 -6 -7 -7 -7 -7 -7 -7 -7 -7 -7 -7 -7 -7 -7 -7 -7 -7 -7 -7 -7 -7 -7 -7 -7
-7 -6 -6 -6 -7 -7 -7 -7 -7 -7 -6 -6 -7 -7 -7 -7 -7 -6 -7 -7 -7 -7 -7 -7 -6 -6 -7 -6 -6 -6 -6 -6 -6 -6 -6 -6 -6 -6 -6 -6 -6 -6 -6 -6 -6 -6 -6 -6 -6 -6 -6 -7 -7 -7 -7 -7 -7 -7 -7 -7 -7 -7 -7 -7 -7 -7 -7 -7 -7 -7 -7 -7 -7 -7
-7 -6 -6 -6 -6 -6 -7 -7 -7 -7 -7 -6 -6 -7 -7 -7 -7 -6 -6 -6 -7 -7 -7 -7 -6 -6 -6 -6 -6 -6 -6 -6 -6 -6 -6 -6 -6 -6 -6 -6 -6 -6 -6 -6 -6 -6 -6 -6 -6 -6 -6 -7 -7 -7 -7 -7 -7 -7 -7 -7 -7 -7 -7 -7 -7 -7 -7 -7 -7 -7 -7 -7 -7 -7
-7 -7 -6 -6 -6 -6 -6 -7 -7 -7 -7 -7 -6 -7 -7 -7 -7 -7 -6 -6 -7 -7 -7 -7 -6 -6 -6 -6 -6 -6 -6 -6 -6 -6 -6 -6 -6 -6 -6 -6 -6 -6 -6 -6 -6 -6 -6 -6 -6 -6 -7 -7 -7 -7 -7 -7 -7 -7 -7 -7 -7 -7 -7 -7 -7 -7 -7 -7 -7 -7 -7 -7 -7 -7
-7 -7 -7 -6 -6 -6 -7 -7 -7 -7 -7 -7 -7 -7 -7 -7 -7 -7 -7 -7 -6 -6 -7 -6 -6 -6 -6 -6 -6 -6 -6 -6 -6 -6 -6 -6 -6 -6 -6 -6 -6 -6 -6 -6 -6 -6 -6 -6 -6 -6 -7 -7 -7 -7 -7 -7 -7 -7 -7 -7 -7 -7 -7 -7 -7 -7 -7 -7 -7 -7 -7 -7 -7 -7
-6 -7 -7 -7 -6 -6 -7 -7 -7 -7 -7 -7 -7 -7 -6 -6 -7 -7 -7 -6 -6 -6 -6 -6 -6 -7 -7 -7 -7 -7 -7 -6 -6 -6 -6 -6 -6 -6 -6 -6 -6 -6 -6 -6 -6 -6 -6 -6 -6 -6 -6 -6 -7 -7 -7 -7 -7 -7 -7 -7 -7 -7 -7 -7 -7 -7 -7 -7 -7 -7 -7 -7 -7 -7
-6 -7 -7 -7 -6 -6 -7 -7 -7 -7 -7 -7 -7 -7 -7 -7 -7 -6 -6 -6 -6 -6 -6 -6 -6 -7 -7 -7 -7 -7 -7 -6 -6 -7 -6 -6 -6 -6 -6 -6 -6 -6 -6 -6 -6 -6 -6 -6 -6 -6 -6 -6 -7 -7 -7 -7 -6 -6 -6 -6 -7 -7 -7 -7 -7 -7 -7 -7 -7 -7 -7 -7 -7 -7
-6 -7 -7 -7 -6 -6 -7 -7 -7 -7 -7 -7 -7 -7 -7 -7 -7 -7 -6 -6 -6 -6 -6 -6 -6 -7 -7 -7 -7 -7 -7 -6 -7 -7 -7 -7 -7 -6 -6 -6 -6 -6 -6 -6 -6 -6 -6 -6 -6 -7 -7 -7 -7 -7 -7 -7 -7 -7 -7 -7 -7 -7 -7 -7 -7 -7 -7 -7 -7 -7 -7 -7 -7 -8
-6 -6 -6 -6 -6 -6 -6 -6 -6 -7 -7 -6 -6 -7 -7 -7 -7 -6 -6 -6 -6 -6 -6 -7 -7 -7 -7 -7 -7 -7 -7 -7 -7 -7 -7 -7 -7 -7 -6 -6 -6 -6 -6 -6 -6 -6 -6 -7 -7 -7 -7 -7 -7 -7 -7 -7 -7 -7 -7 -7 -7 -7 -7 -7 -7 -7 -7 -7 -7 -8 -8 -8 -8 -8
-7 -6 -6 -6 -6 -6 -6 -6 -6 -6 -6 -6 -6 -6 -6 -6 -6 -6 -6 -6 -6 -6 -7 -7 -7 -7 -7 -7 -7 -7 -7 -7 -7 -7 -7 -7 -7 -7 -7 -7 -7 -7 -7 -6 -6 -6 -7 -7 -7 -7 -7 -7 -7 -7 -7 -8 -8 -8 -8 -8 -8 -8 -7 -7 -7 -7 -8 -8 -8 -8 -8 -8 -8 -8
-7 -7 -7 -6 -6 -6 -6 -6 -6 -6 -6 -6 -6 -6 -6 -6 -6 -6 -6 -6 -6 -7 -7 -7 -7 -7 -7 -7 -7 -7 -7 -7 -7 -7 -7 -7 -7 -7 -7 -7 -7 -7 -7 -7 -6 -6 -7 -7 -8 -8 -8 -7 -8 -8 -8 -8 -8 -8 -8 -8 -8 -8 -8 -8 -8 -8 -8 -8 -8 -8 -8 -8 -8 -8
-6 -7 -7 -7 -7 -6 -6 -6 -6 -6 -6 -6 -6 -6 -6 -6 -6 -6 -6 -6 -7 -7 -7 -7 -7 -7 -7 -7 -7 -7 -7 -7 -7 -7 -7 -7 -7 -7 -7 -7 -7 -7 -7 -7 -7 -7 -7 -7 -7 -8 -8 -8 -8 -8 -8 -8 -8 -8 -8 -9 -9 -9 -8 -8 -8 -8 -8 -8 -8 -8 -8 -8 -8 -8
-6 -6 -6 -7 -7 -6 -6 -6 -6 -6 -6 -6 -6 -6 -6 -6 -6 -6 -6 -7 -7 -7 -7 -7 -7 -8 -8 -8 -8 -7 -7 -7 -7 -7 -7 -7 -7 -7 -8 -8 -7 -7 -7 -7 -7 -7 -7 -7 -8 -8 -8 -8 -8 -8 -8 -8 -8 -8 -9 -9 -9 -9 -8 -8 -8 -8 -8 -8 -8 -8 -8 -8 -8 -8
-6 -6 -6 -6 -6 -6 -6 -6 -6 -6 -6 -6 -6 -6 -6 -6 -6 -6 -6 -7 -7 -7 -7 -7 -8 -8 -8 -8 -8 -7 -7 -7 -7 -7 -7 -7 -7 -8 -8 -8 -8 -8 -8 -8 -8 -8 -8 -8 -8 -8 -8 -8 -8 -8 -8 -8 -8 -9 -9 -9 -9 -9 -9 -9 -9 -9 -9 -8 -8 -8 -9 -9 -9 -9
-7 -7 -6 -6 -6 -7 -7 -7 -7 -7 -7 -7 -7 -7 -7 -7 -7 -7 -7 -7 -7 -7 -8 -8 -8 -8 -8 -7 -7 -7 -7 -7 -7 -7 -7 -7 -7 -8 -8 -8 -8 -8 -9 -9 -9 -9 -9 -9 -9 -9 -9 -8 -8 -8 -8 -8 -8 -9 -9 -10 -10 -9 -9 -9 -9 -9 -9 -9 -9 -9 -9 -9 -9 -9
-7 -7 -7 -7 -7 -7 -7 -7 -7 -7 -7 -7 -7 -7 -7 -7 -7 -7 -7 -8 -8 -8 -8 -8 -8 -8 -7 -7 -7 -7 -7 -7 -7 -7 -8 -8 -8 -8 -8 -9 -9 -9 -9 -9 -9 -9 -9 -9 -9 -9 -9 -9 -9 -9 -9 -9 -9 -9 -10 -10 -10 -10 -9 -9 -9 -9 -9 -9 -9 -9 -9 -10 -10 -10
-7 -7 -7 -7 -7 -7 -7 -7 -8 -8 -8 -7 -7 -7 -7 -7 -7 -7 -8 -8 -8 -8 -8 -8 -8 -8 -7 -8 -8 -8 -8 -8 -8 -8 -8 -9 -9 -9 -9 -9 -9 -9 -9 -9 -9 -9 -9 -9 -10 -10 -10 -9 -10 -10 -10 -9 -9 -10 -10 -10 -10 -10 -10 -10 -10 -10 -10 -10 -10 -10 -10 -10 -10 -10
-7 -7 -7 -7 -7 -7 -7 -8 -8 -8 -8 -7 -8 -8 -8 -8 -8 -8 -8 -8 -8 -8 -8 -8 -8 -7 -7 -7 -8 -8 -8 -8 -9 -9 -9 -9 -9 -9 -9 -9 -9 -10 -10 -10 -10 -10 -10 -10 -10 -10 -10 -10 -10 -10 -10 -10 -10 -10 -10 -10 -10 -10 -10 -10 -10 -10 -10 -10 -10 -10 -10 -10 -10 -10
-7 -7 -7 -7 -7 -7 -7 -8 -8 -8 -8 -7 -8 -8 -8 -8 -8 -8 -8 -8 -8 -8 -8 -8 -8 -8 -7 -8 -8 -8 -8 -9 -10 -10 -10 -10 -10 -10 -10 -10 -10 -10 -10 -11 -11 -11 -11 -11 -11 -11 -11 -11 -11 -11 -11 -10 -10 -10 -10 -10 -10 -10 -10 -10 -10 -10 -10 -10 -10 -10 -10 -11 -11 -11
-7 -7 -7 -7 -7 -7 -7 -8 -8 -8 -8 -8 -8 -8 -8 -8 -8 -8 -8 -8 -8 -8 -8 -8 -8 -8 -8 -8 -8 -9 -9 -9 -10 -10 -10 -10 -10 -10 -11 -11 -11 -11 -11 -11 -11 -11 -11 -11 -11 -11 -11 -11 -11 -11 -11 -11 -11 -11 -10 -10 -11 -11 -11 -11 -10 -10 -10 -10 -10 -10 -11 -11 -11 -11
-7 -7 -7 -7 -7 -7 -7 -7 -8 -8 -8 -8 -8 -8 -8 -8 -8 -8 -9 -8 -8 -8 -8 -8 -8 -8 -9 -9 -9 -9 -9 -10 -10 -10 -11 -11 -11 -11 -11 -12 -12 -12 -12 -12 -12 -11 -11 -11 -11 -11 -11 -11 -11 -11 -11 -11 -11 -11 -11 -11 -11 -11 -11 -11 -11 -11 -11 -11 -11 -11 -11 -11 -11 -11
-6 -6 -7 -7 -7 -7 -8 -7 -8 -8 -8 -8 -8 -8 -8 -8 -9 -9 -9 -9 -9 -9 -9 -9 -9 -9 -9 -9 -9 -10 -10 -10 -10 -11 -11 -12 -12 -12 -12 -12 -12 -12 -12 -12 -12 -12 -12 -11 -11 -11 -11 -11 -11 -11 -11 -11 -11 -11 -11 -11 -11 -11 -11 -11 -11 -11 -11 -11 -11 -11 -11 -11 -11 -11
-6 -6 -6 -7 -8 -8 -7 -7 -8 -8 -8 -8 -8 -8 -8 -9 -9 -9 -9 -9 -9 -9 -9 -9 -9 -9 -10 -10 -10 -11 -11 -11 -11 -12 -12 -12 -12 -12 -12 -12 -12 -12 -12 -12 -12 -12 -11 -11 -11 -11 -11 -11 -11 -11 -11 -11 -11 -11 -11 -11 -11 -11 -11 -11 -11 -11 -11 -11 -11 -11 -11 -11 -11 -11
-7 -6 -6 -7 -7 -7 -8 -8 -8 -8 -8 -8 -8 -8 -8 -8 -8 -9 -9 -9 -9 -10 -10 -10 -10 -11 -11 -11 -11 -12 -12 -12 -12 -12 -12 -13 -13 -13 -12 -12 -12 -12 -12 -12 -12 -12 -12 -12 -12 -12 -12 -12 -12 -12 -12 -11 -11 -11 -11 -11 -11 -11 -11 -11 -11 -11 -11 -11 -11 -11 -11 -12 -12 -12
-7 -7 -7 -7 -8 -8 -8 -8 -8 -8 -8 -8 -8 -8 -8 -9 -9 -9 -10 -10 -10 -10 -11 -11 -11 -11 -12 -12 -12 -12 -12 -12 -12 -12 -12 -13 -13 -13 -12 -12 -12 -12 -12 -12 -12 -12 -12 -12 -12 -12 -12 -12 -12 -12 -12 -12 -12 -12 -12 -12 -12 -12 -12 -12 -11 -11 -11 -12 -12 -12 -12 -12 -12 -12
-8 -8 -8 -8 -8 -8 -8 -8 -8 -8 -8 -8 -9 -9 -9 -9 -10 -10 -10 -11 -11 -11 -12 -12 -12 -12 -12 -12 -12 -12 -12 -12 -12 -12 -12 -12 -12 -12 -12 -12 -12 -12 -12 -12 -12 -12 -12 -12 -12 -12 -12 -12 -12 -12 -12 -12 -12 -12 -12 -12 -12 -12 -12 -12 -12 -12 -12 -12 -12 -12 -13 -13 -13 -13
-8 -8 -8 -8 -8 -8 -8 -8 -8 -9 -9 -9 -10 -10 -10 -10 -10 -11 -11 -11 -12 -12 -12 -13 -13 -13 -13 -12 -12 -12 -12 -12 -12 -12 -12 -12 -12 -12 -12 -12 -12 -12 -12 -12 -12 -12 -12 -12 -12 -12 -12 -12 -12 -12 -12 -12 -12 -12 -12 -12 -12 -12 -12 -12 -12 -12 -12 -13 -13 -13 -13 -13 -14 -14
-8 -8 -8 -9 -9 -9 -9 -9 -10 -10 -10 -10 -10 -10 -11 -11 -11 -12 -12 -12 -12 -12 -12 -12 -13 -13 -13 -13 -13 -12 -12 -12 -12 -12 -12 -12 -12 -13 -13 -12 -12 -12 -12 -12 -12 -12 -12 -12 -12 -12 -12 -12 -12 -12 -12 -12 -12 -12 -13 -13 -13 -13 -13 -13 -13 -13 -13 -14 -14 -14 -14 -14 -14 -15
-9 -9 -9 -10 -10 -10 -10 -10 -11 -11 -11 -11 -11 -11 -12 -12 -12 -12 -12 -12 -12 -12 -12 -12 -12 -12 -13 -13 -13 -13 -12 -12 -12 -13 -13 -13 -13 -13 -13 -13 -12 -12 -12 -12 -12 -12 -12 -12 -12 -12 -12 -12 -12 -12 -12 -13 -13 -13 -13 -14 -14 -14 -14 -14 -14 -14 -14 -15 -15 -15 -15 -15 -16 -16
-10 -10 -10 -11 -11 -11 -11 -11 -11 -11 -11 -12 -12 -12 -12 -12 -12 -12 -12 -12 -12 -12 -12 -12 -12 -13 -13 -13 -13 -13 -13 -13 -13 -13 -13 -13 -13 -13 -13 -13 -13 -12 -12 -12 -12 -12 -12 -12 -12 -12 -12 -13 -13 -13 -13 -13 -13 -14 -14 -14 -15 -15 -15 -15 -15 -15 -15 -15 -16 -16 -16 -17 -17 -17
-11 -11 -11 -11 -11 -12 -12 -11 -11 -12 -12 -12 -12 -12 -12 -12 -12 -12 -12 -12 -12 -12 -13 -13 -13 -13 -13 -13 -13 -13 -13 -13 -13 -13 -13 -13 -13 -13 -13 -13 -13 -12 -12 -12 -12 -12 -12 -13 -13 -13 -13 -13 -13 -13 -13 -13 -14 -14 -15 -15 -15 -15 -15 -15 -15 -15 -16 -16 -16 -17 -17 -18 -18 -18
-11 -11 -12 -12 -12 -12 -12 -12 -12 -12 -12 -12 -12 -12 -12 -12 -12 -12 -12 -12 -12 -13 -13 -13 -13 -13 -13 -13 -13 -13 -13 -13 -13 -13 -13 -13 -13 -13 -13 -13 -13 -13 -13 -13 -13 -13 -13 -13 -13 -13 -13 -13 -13 -13 -13 -14 -14 -15 -15 -15 -15 -15 -16 -16 -16 -16 -17 -17 -17 -18 -18 -19 -19 -19
-12 -12 -12 -12 -12 -12 -12 -12 -12 -12 -12 -12 -12 -12 -12 -12 -12 -13 -13 -13 -13 -13 -13 -13 -13 -13 -13 -13 -13 -13 -13 -13 -13 -13 -13 -13 -13 -13 -13 -13 -13 -13 -13 -13 -13 -13 -13 -13 -14 -14 -14 -14 -14 -14 -14 -15 -15 -15 -16 -16 -16 -16 -16 -16 -17 -17 -18 -18 -18 -19 -19 -19 -19 -20
-12 -12 -12 -12 -12 -12 -12 -12 -12 -12 -12 -12 -12 -12 -12 -12 -13 -13 -13 -13 -13 -13 -13 -13 -13 -13 -13 -13 -13 -13 -13 -13 -13 -13 -13 -13 -13 -13 -13 -13 -13 -13 -13 -13 -13 -13 -14 -14 -14 -14 -14 -14 -14 -15 -15 -15 -16 -16 -16 -16 -16 -17 -17 -18 -18 -18 -19 -19 -19 -19 -20 -20 -20 -20
-12 -12 -12 -12 -12 -12 -12 -12 -12 -12 -12 -12 -12 -12 -12 -13 -13 -13 -13 -13 -13 -13 -13 -13 -13 -13 -13 -13 -13 -13 -13 -13 -13 -13 -13 -13 -13 -13 -13 -13 -13 -13 -13 -14 -14 -14 -14 -15 -15 -15 -15 -15 -15 -16 -16 -16 -16 -16 -17 -17 -17 -18 -18 -18 -19 -19 -19 -19 -20 -20 -20 -20 -20 -20
-12 -12 -12 -12 -12 -12 -12 -12 -12 -12 -12 -12 -12 -12 -13 -13 -13 -13 -13 -13 -13 -13 -13 -13 -13 -13 -13 -13 -13 -13 -13 -13 -13 -13 -13 -13 -13 -13 -13 -14 -14 -14 -14 -14 -14 -15 -15 -15 -16 -16 -16 -16 -16 -16 -16 -17 -17 -17 -17 -18 -18 -18 -19 -19 -19 -19 -19 -20 -20 -20 -20 -20 -20 -21
-12 -12 -12 -12 -12 -12 -12 -12 -12 -13 -13 -13 -13 -13 -13 -13 -13 -13 -13 -13 -13 -13 -13 -14 -14 -14 -14 -14 -14 -14 -14 -14 -14 -14 -14 -14 -14 -14 -14 -14 -14 -14 -15 -15 -15 -15 -15 -16 -16 -16 -16 -16 -16 -17 -17 -17 -17 -18 -18 -18 -19 -19 -19 -19 -20 -20 -20 -20 -20 -20 -21 -21 -21 -21
Height
5909 5909 5909 5909 5909 5909 5909 5909 5909 5909 5909 5909 5908 5908 5908 5908 5908 5908 5908 5908 5907 5906 5904 5903 5903 5903 5903 5904 5903 5903 5904 5904 5903 5903 5903 5903 5902 5900 5899 5899 5898 5898 5898 5899 5899 5899 5899 5899 5898 5898 5898 5898 5898 5898 5897 5897 5897 5897 5897 5897 5897 5897 5897 5897 5897 5897 5897 5897 5897 5897 5896 5896 5895 5895
5907 5907 5908 5908 5908 5908 5908 5908 5908 5908 5908 5908 5907 5907 5907 5907 5907 5907 5907 5908 5908 5908 5907 5907 5907 5905 5905 5905 5905 5904 5905 5904 5904 5904 5903 5902 5901 5900 5900 5900 5899 5899 5899 5899 5899 5899 5899 5899 5898 5898 5898 5898 5898 5897 5897 5897 5897 5897 5897 5897 5897 5897 5897 5897 5897 5897 5897 5897 5896 5896 5896 5895 5895 5894
5906 5906 5907 5907 5907 5908 5908 5908 5908 5908 5908 5908 5907 5906 5906 5906 5906 5906 5905 5906 5906 5907 5908 5909 5909 5907 5906 5906 5905 5905 5905 5904 5903 5902 5902 5901 5900 5900 5900 5900 5899 5899 5899 5899 5899 5899 5898 5898 5898 5898 5898 5898 5898 5897 5897 5896 5896 5895 5895 5895 5896 5896 5896 5896 5896 5896 5895 5895 5895 5895 5894 5894 5893 5893
5905 5906 5906 5906 5906 5907 5907 5907 5908 5908 5908 5907 5907 5906 5906 5906 5905 5905 5904 5904 5904 5904 5904 5905 5906 5905 5904 5904 5903 5903 5903 5902 5901 5901 5901 5900 5900 5900 5900 5900 5899 5899 5899 5899 5899 5898 5897 5897 5897 5897 5897 5896 5896 5896 5896 5895 5895 5894 5894 5893 5893 5894 5894 5894 5894 5894 5894 5894 5893 5893 5892 5892 5892 5891
5904 5905 5906 5906 5906 5907 5907 5907 5907 5907 5908 5907 5907 5906 5906 5905 5905 5904 5904 5903 5903 5902 5902 5902 5902 5902 5901 5901 5900 5900 5900 5900 5900 5899 5899 5899 5899 5899 5899 5899 5898 5898 5898 5898 5898 5897 5897 5896 5895 5895 5895 5895 5895 5895 5894 5894 5894 5893 5892 5892 5892 5892 5892 5892 5892 5892 5892 5891 5891 5891 5890 5890 5890 5889
5904 5905 5905 5906 5906 5907 5907 5907 5907 5907 5907 5907 5906 5906 5906 5905 5904 5904 5903 5903 5902 5902 5901 5901 5901 5900 5900 5900 5900 5900 5899 5899 5899 5899 5898 5898 5898 5898 5897 5897 5897 5897 5896 5896 5897 5896 5896 5895 5894 5893 5893 5893 5893 5893 5893 5893 5892 5892 5891 5891 5890 5890 5890 5889 5889 5889 5889 5889 5888 5888 5888 5887 5887 5887
5903 5903 5903 5904 5904 5904 5904 5905 5906 5906 5906 5906 5905 5905 5904 5904 5904 5903 5903 5903 5902 5902 5901 5901 5900 5900 5899 5899 5898 5898 5898 5898 5898 5898 5897 5897 5896 5896 5895 5895 5895 5895 5895 5895 5895 5895 5894 5894 5893 5892 5892 5892 5892 5892 5891 5891 5891 5890 5890 5889 5889 5888 5888 5887 5887 5887 5887 5886 5886 5885 5885 5885 5884 5884
5900 5900 5901 5901 5903 5903 5902 5903 5904 5904 5904 5904 5904 5903 5903 5903 5903 5903 5902 5902 5901 5901 5901 5900 5900 5899 5898 5898 5897 5897 5897 5897 5896 5896 5896 5896 5895 5894 5893 5893 5893 5894 5894 5894 5893 5893 5893 5892 5892 5891 5890 5890 5890 5890 5889 5889 5889 5889 5888 5887 5887 5886 5886 5885 5885 5885 5884 5884 5883 5883 5882 5882 5882 5881
5898 5899 5900 5901 5901 5901 5901 5901 5902 5902 5902 5901 5901 5901 5902 5902 5902 5901 5901 5901 5900 5900 5900 5899 5899 5898 5897 5897 5896 5896 5896 5895 5895 5895 5895 5894 5894 5893 5892 5891 5892 5892 5892 5892 5891 5891 5891 5890 5890 5889 5888 5888 5888 5888 5887 5887 5887 5887 5886 5885 5884 5884 5884 5883 5883 5882 5882 5881 5881 5880 5880 5879 5879 5879
5897 5898 5899 5899 5900 5900 5900 5900 5900 5900 5900 5900 5899 5899 5900 5900 5900 5900 5900 5899 5899 5898 5898 5898 5897 5897 5896 5896 5895 5895 5894 5894 5894 5893 5893 5892 5892 5891 5890 5890 5890 5890 5890 5890 5889 5889 5889 5888 5888 5887 5887 5886 5886 5885 5885 5884 5884 5884 5883 5882 5882 5881 5881 5881 5880 5880 5879 5878 5878 5877 5877 5876 5876 5876
5896 5897 5897 5898 5898 5898 5898 5898 5898 5899 5899 5899 5898 5899 5899 5899 5899 5899 5899 5898 5897 5897 5896 5896 5895 5895 5894 5894 5893 5893 5892 5892 5892 5892 5891 5891 5890 5889 5889 5888 5888 5888 5888 5888 5887 5887 5887 5886 5886 5885 5885 5884 5883 5883 5882 5882 5882 5881 5881 5880 5879 5878 5878 5878 5878 5877 5876 5876 5875 5874 5873 5873 5873 5873
5894 5895 5895 5895 5895 5895 5896 5896 5896 5896 5896 5896 5897 5896 5896 5897 5897 5897 5897 5897 5896 5895 5894 5894 5893 5893 5892 5892 5891 5891 5890 5890 5890 5890 5889 5889 5888 5887 5887 5886 5886 5886 5885 5885 5885 5885 5885 5884 5884 5883 5882 5881 5880 5880 5880 5880 5879 5878 5877 5877 5876 5876 5875 5875 5875 5874 5874 5873 5872 5870 5870 5870 5870 5870
5891 5892 5892 5892 5892 5892 5893 5893 5893 5893 5894 5894 5894 5894 5894 5893 5894 5895 5895 5895 5894 5893 5892 5892 5892 5891 5890 5890 5889 5889 5888 5888 5888 5887 5887 5886 5886 5885 5885 5885 5884 5884 5883 5883 5883 5882 5882 5882 5881 5880 5880 5879 5878 5877 5877 5877 5876 5875 5874 5874 5873 5873 5872 5872 5872 5871 5870 5869 5868 5867 5867 5867 5867 5867
5888 5889 5889 5889 5889 5890 5891 5891 5890 5891 5891 5891 5891 5892 5892 5891 5891 5892 5892 5892 5891 5890 5890 5890 5890 5889 5888 5887 5887 5887 5886 5886 5885 5885 5885 5884 5884 5883 5883 5882 5882 5882 5881 5881 5880 5880 5880 5879 5878 5877 5877 5876 5876 5875 5874 5874 5873 5872 5871 5871 5870 5870 5869 5868 5868 5866 5865 5864 5864 5863 5863 5863 5863 5863
5886 5887 5887 5887 5887 5888 5888 5888 5888 5888 5888 5888 5888 5889 5889 5889 5889 5889 5889 5889 5888 5887 5887 5886 5886 5886 5885 5885 5884 5884 5883 5883 5883 5882 5882 5882 5881 5880 5880 5880 5879 5879 5878 5877 5877 5876 5876 5876 5875 5874 5873 5873 5872 5871 5871 5870 5870 5869 5868 5867 5867 5866 5866 5865 5863 5862 5861 5861 5861 5860 5859 5858 5859 5859
5884 5885 5885 5885 5885 5885 5885 5885 5885 5885 5885 5886 5886 5886 5886 5886 5886 5886 5886 5885 5885 5884 5883 5883 5883 5883 5882 5882 5881 5881 5881 5880 5880 5880 5880 5879 5878 5877 5877 5877 5876 5875 5874 5873 5873 5872 5871 5871 5870 5870 5869 5868 5868 5867 5867 5866 5866 5866 5865 5864 5863 5863 5863 5862 5860 5859 5858 5857 5856 5856 5855 5854 5854 5854
5881 5881 5882 5882 5882 5882 5882 5882 5882 5882 5882 5883 5883 5882 5883 5883 5882 5882 5882 5881 5881 5880 5880 5880 5880 5879 5879 5878 5878 5878 5877 5877 5876 5877 5877 5876 5875 5874 5873 5873 5872 5872 5871 5870 5869 5868 5866 5865 5865 5864 5864 5863 5863 5863 5863 5862 5862 5862 5861 5860 5858 5858 5858 5858 5856 5855 5854 5853 5852 5852 5851 5849 5848 5848
5878 5878 5878 5878 5879 5879 5879 5878 5878 5879 5879 5879 5879 5879 5879 5879 5878 5878 5877 5877 5876 5876 5876 5876 5876 5875 5875 5875 5874 5874 5874 5873 5872 5872 5873 5872 5871 5870 5869 5868 5868 5868 5867 5865 5864 5863 5862 5860 5859 5859 5858 5859 5859 5859 5858 5858 5857 5857 5857 5856 5854 5853 5852 5852 5851 5850 5849 5848 5847 5846 5845 5844 5843 5842
5874 5874 5874 5874 5875 5876 5876 5875 5875 5874 5874 5874 5875 5875 5875 5875 5874 5873 5873 5872 5872 5872 5872 5872 5872 5871 5871 5871 5871 5870 5870 5869 5868 5867 5867 5867 5866 5865 5864 5863 5863 5863 5862 5860 5859 5858 5857 5855 5855 5854 5854 5854 5854 5854 5853 5853 5852 5852 5851 5850 5850 5848 5847 5846 5845 5844 5843 5842 5841 5840 5839 5838 5837 5835
5870 5870 5871 5870 5871 5872 5873 5872 5871 5871 5870 5870 5870 5870 5870 5870 5870 5869 5869 5868 5868 5868 5868 5868 5867 5867 5867 5867 5867 5866 5866 5866 5865 5863 5862 5861 5861 5860 5859 5858 5858 5857 5857 5855 5854 5853 5852 5851 5850 5850 5849 5849 5848 5848 5847 5847 5846 5846 5845 5845 5844 5844 5842 5841 5839 5838 5837 5836 5835 5834 5832 5831 5830 5829
5865 5866 5867 5867 5867 5868 5869 5869 5868 5867 5866 5866 5866 5865 5865 5865 5865 5865 5864 5864 5864 5864 5864 5863 5863 5863 5863 5862 5862 5862 5861 5861 5860 5858 5857 5856 5855 5854 5853 5853 5853 5852 5851 5850 5849 5848 5847 5846 5845 5844 5844 5843 5842 5841 5840 5840 5840 5839 5839 5839 5838 5838 5837 5835 5834 5832 5831 5830 5828 5827 5826 5825 5824 5822
5861 5861 5862 5862 5862 5863 5864 5864 5863 5862 5862 5861 5861 5861 5860 5860 5860 5860 5860 5860 5860 5859 5859 5859 5858 5858 5858 5858 5858 5857 5857 5856 5855 5853 5852 5851 5850 5849 5848 5847 5847 5846 5845 5844 5844 5842 5842 5841 5840 5839 5839 5838 5837 5836 5835 5834 5834 5833 5833 5832 5832 5831 5830 5829 5828 5827 5825 5824 5823 5821 5820 5819 5818 5816
5856 5857 5857 5857 5857 5857 5858 5857 5857 5857 5857 5856 5856 5856 5856 5855 5855 5855 5855 5855 5855 5855 5855 5854 5854 5853 5853 5853 5852 5852 5851 5850 5849 5848 5847 5846 5845 5844 5843 5842 5842 5841 5840 5839 5839 5838 5837 5836 5836 5835 5834 5834 5833 5831 5830 5829 5829 5828 5828 5827 5826 5825 5824 5823 5822 5821 5820 5819 5817 5816 5814 5813 5811 5810
5850 5851 5851 5852 5852 5852 5851 5851 5851 5851 5851 5851 5851 5850 5850 5850 5850 5850 5850 5850 5850 5850 5849 5849 5848 5848 5847 5847 5846 5846 5845 5844 5843 5842 5841 5840 5840 5839 5838 5838 5837 5836 5836 5835 5834 5833 5832 5831 5831 5830 5830 5829 5828 5826 5825 5824 5824 5824 5823 5822 5821 5820 5819 5818 5817 5815 5814 5812 5811 5809 5808 5807 5805 5804
5845 5846 5847 5848 5847 5845 5845 5844 5845 5845 5846 5847 5846 5845 5844 5844 5844 5844 5844 5844 5845 5845 5844 5843 5843 5842 5841 5840 5840 5839 5839 5838 5837 5837 5836 5835 5835 5835 5834 5833 5833 5832 5831 5830 5829 5828 5827 5826 5826 5826 5825 5824 5823 5822 5820 5819 5819 5820 5819 5817 5816 5815 5814 5812 5811 5810 5808 5807 5805 5804 5803 5802 5800 5799
5840 5841 5843 5844 5841 5838 5839 5839 5838 5839 5841 5842 5842 5839 5838 5838 5838 5838 5838 5839 5839 5839 5838 5838 5837 5836 5836 5835 5834 5834 5833 5833 5832 5832 5832 5831 5831 5830 5829 5829 5828 5828 5827 5826 5825 5824 5824 5823 5822 5822 5821 5820 5819 5818 5816 5815 5815 5815 5814 5812 5811 5809 5808 5807 5806 5805 5803 5802 5800 5799 5798 5797 5795 5793
5835 5835 5837 5838 5834 5832 5835 5835 5833 5832 5835 5836 5836 5835 5833 5833 5833 5833 5833 5833 5834 5834 5833 5833 5832 5831 5831 5830 5830 5829 5828 5827 5828 5827 5827 5827 5826 5826 5825 5824 5823 5823 5822 5822 5822 5821 5821 5820 5819 5818 5817 5816 5815 5814 5813 5812 5810 5809 5809 5807 5806 5804 5803 5801 5800 5799 5797 5796 5795 5793 5792 5790 5789 5787
5829 5829 5831 5830 5828 5827 5829 5830 5829 5829 5830 5831 5830 5830 5830 5830 5829 5829 5829 5829 5829 5828 5828 5827 5827 5826 5826 5826 5825 5824 5823 5823 5823 5823 5822 5821 5821 5821 5820 5820 5819 5819 5818 5818 5818 5818 5817 5816 5815 5814 5813 5812 5812 5811 5809 5808 5806 5805 5803 5802 5801 5799 5797 5796 5794 5792 5791 5789 5788 5787 5785 5783 5781 5780
5823 5824 5825 5824 5823 5823 5824 5825 5826 5827 5827 5827 5826 5826 5826 5826 5825 5824 5824 5824 5823 5823 5822 5822 5822 5821 5821 5820 5819 5818 5818 5817 5818 5817 5817 5816 5816 5816 5816 5816 5816 5815 5815 5815 5814 5814 5813 5812 5811 5810 5809 5808 5807 5806 5804 5803 5802 5800 5798 5797 5795 5793 5792 5790 5788 5786 5784 5782 5781 5779 5777 5775 5773 5771
5817 5816 5817 5818 5819 5819 5819 5821 5824 5824 5823 5822 5821 5822 5822 5821 5819 5819 5818 5818 5817 5817 5817 5817 5817 5816 5816 5815 5814 5814 5813 5813 5813 5814 5813 5813 5813 5813 5813 5813 5813 5813 5812 5811 5811 5810 5809 5808 5807 5805 5804 5803 5802 5800 5799 5798 5796 5795 5793 5791 5789 5788 5786 5784 5782 5780 5777 5775 5773 5771 5769 5767 5765 5763
5816 5812 5810 5812 5816 5816 5816 5817 5819 5819 5818 5817 5817 5817 5816 5816 5815 5814 5814 5813 5813 5813 5813 5813 5812 5812 5812 5812 5812 5812 5811 5811 5811 5812 5811 5810 5810 5810 5810 5809 5809 5809 5808 5807 5807 5806 5805 5804 5802 5801 5799 5798 5796 5795 5793 5792 5790 5788 5786 5785 5783 5781 5779 5778 5776 5774 5771 5769 5766 5764 5762 5760 5757 5755
5814 5811 5808 5810 5813 5814 5814 5814 5815 5814 5814 5813 5813 5812 5812 5811 5811 5811 5810 5810 5810 5810 5810 5809 5809 5809 5809 5809 5809 5809 5809 5809 5809 5809 5809 5808 5807 5807 5807 5806 5805 5804 5804 5803 5802 5802 5800 5799 5798 5796 5795 5793 5791 5789 5788 5786 5784 5782 5780 5778 5776 5774 5772 5770 5768 5766 5764 5761 5759 5757 5754 5751 5748 5745
5808 5809 5809 5810 5811 5811 5811 5811 5811 5811 5811 5810 5809 5809 5808 5808 5808 5807 5807 5807 5806 5807 5807 5806 5806 5806 5806 5806 5807 5807 5807 5807 5807 5807 5807 5806 5805 5805 5804 5804 5802 5801 5800 5799 5797 5797 5796 5794 5793 5792 5790 5788 5786 5784 5782 5780 5777 5775 5773 5771 5768 5766 5764 5762 5760 5757 5755 5753 5750 5748 5745 5742 5739 5736
5805 5805 5806 5807 5807 5807 5807 5807 5807 5807 5807 5806 5806 5805 5805 5805 5805 5804 5804 5804 5804 5804 5804 5804 5803 5803 5804 5804 5804 5805 5805 5805 5804 5804 5804 5803 5802 5801 5801 5800 5799 5798 5797 5796 5794 5792 5791 5790 5788 5786 5785 5782 5780 5777 5775 5773 5770 5768 5766 5763 5760 5757 5755 5753 5751 5748 5746 5743 5741 5738 5735 5732 5729 5726
5803 5803 5803 5803 5803 5803 5802 5802 5802 5802 5802 5802 5802 5802 5802 5802 5802 5802 5802 5802 5802 5803 5803 5803 5802 5802 5802 5802 5802 5802 5802 5802 5801 5801 5801 5800 5798 5797 5796 5796 5794 5793 5793 5792 5790 5788 5787 5785 5784 5782 5780 5778 5774 5771 5769 5767 5765 5762 5759 5755 5752 5749 5746 5744 5742 5739 5736 5733 5731 5729 5726 5723 5720 5717
5801 5800 5800 5799 5798 5798 5798 5798 5798 5798 5799 5799 5799 5799 5799 5800 5800 5800 5801 5801 5801 5801 5802 5802 5801 5801 5801 5800 5800 5799 5799 5798 5798 5797 5797 5796 5795 5793 5791 5791 5790 5788 5787 5787 5785 5784 5782 5780 5778 5776 5774 5772 5769 5766 5763 5761 5759 5756 5752 5748 5745 5741 5738 5736 5734 5731 5727 5724 5722 5719 5716 5713 5710 5707
5796 5796 5796 5795 5795 5795 5795 5795 5796 5796 5797 5797 5798 5798 5798 5798 5799 5799 5800 5799 5799 5800 5800 5799 5799 5799 5798 5798 5797 5796 5796 5795 5794 5794 5793 5792 5791 5789 5787 5786 5786 5784 5783 5782 5780 5778 5776 5774 5772 5770 5767 5765 5763 5760 5757 5755 5752 5749 5745 5741 5737 5733 5730 5728 5726 5723 5719 5715 5712 5710 5707 5703 5700 5697
5793 5793 5793 5793 5793 5793 5793 5794 5795 5795 5796 5796 5796 5797 5797 5797 5797 5798 5798 5798 5798 5797 5797 5797 5797 5796 5795 5794 5794 5793 5792 5791 5791 5790 5789 5788 5787 5785 5783 5782 5781 5780 5778 5776 5774 5772 5770 5767 5765 5763 5760 5758 5755 5753 5751 5748 5745 5741 5737 5734 5729 5725 5722 5720 5718 5714 5711 5708 5704 5701 5698 5694 5691 5688
5792 5792 5792 5792 5792 5792 5793 5793 5794 5795 5795 5795 5795 5796 5796 5796 5796 5796 5796 5796 5796 5795 5795 5794 5793 5793 5792 5791 5790 5789 5788 5787 5787 5786 5785 5783 5783 5782 5780 5777 5776 5774 5773 5771 5769 5766 5763 5760 5758 5756 5753 5751 5748 5746 5744 5741 5737 5734 5730 5726 5722 5718 5714 5712 5709 5707 5703 5700 5697 5694 5690 5686 5683 5681
5792 5792 5792 5791 5791 5792 5792 5793 5793 5794 5794 5794 5794 5795 5795 5794 5794 5793 5793 5793 5793 5792 5791 5791 5790 5789 5789 5788 5787 5785 5784 5783 5783 5782 5781 5779 5778 5777 5776 5773 5771 5768 5767 5765 5763 5760 5756 5753 5752 5750 5747 5745 5742 5739 5737 5734 5731 5727 5723 5719 5715 5712 5708 5704 5701 5699 5695 5692 5690 5687 5683 5680 5677 5674
5791 5791 5791 5791 5791 5791 5791 5792 5792 5793 5793 5793 5793 5792 5792 5792 5791 5790 5790 5789 5789 5789 5788 5787 5786 5786 5785 5784 5783 5782 5781 5780 5779 5778 5777 5775 5773 5772 5770 5768 5766 5763 5761 5759 5757 5754 5750 5746 5744 5743 5741 5739 5736 5733 5730 5727 5724 5720 5717 5712 5709 5706 5703 5699 5695 5692 5689 5686 5683 5680 5677 5674 5671 5668
5791 5791 5791 5791 5791 5790 5790 5790 5790 5791 5791 5791 5790 5790 5790 5789 5789 5788 5788 5787 5786 5786 5785 5784 5783 5782 5781 5781 5780 5779 5777 5775 5774 5773 5772 5770 5768 5766 5765 5763 5761 5758 5756 5753 5751 5748 5744 5740 5737 5735 5734 5732 5730 5727 5723 5719 5716 5713 5709 5705 5702 5698 5695 5692 5689 5686 5683 5680 5677 5674 5671 5668 5666 5663
5790 5790 5790 5790 5790 5789 5789 5789 5788 5788 5788 5788 5788 5787 5787 5786 5786 5786 5785 5784 5784 5783 5782 5781 5780 5778 5777 5777 5776 5775 5773 5771 5769 5768 5767 5765 5763 5762 5760 5758 5756 5753 5751 5748 5746 5743 5739 5735 5731 5729 5727 5725 5723 5720 5716 5712 5708 5705 5701 5698 5694 5691 5688 5685 5682 5680 5677 5675 5672 5669 5666 5664 5661 5658
5789 5788 5788 5788 5788 5787 5787 5787 5786 5786 5786 5785 5785 5784 5784 5783 5783 5783 5782 5781 5781 5780 5779 5778 5777 5775 5774 5773 5772 5772 5770 5767 5765 5763 5762 5760 5759 5757 5755 5753 5750 5748 5745 5742 5740 5738 5734 5729 5725 5722 5719 5718 5717 5714 5709 5705 5701 5697 5693 5690 5687 5685 5682 5679 5676 5674 5672 5669 5666 5664 5661 5658 5655 5653
5787 5786 5786 5786 5786 5786 5785 5785 5784 5784 5783 5783 5782 5782 5781 5781 5780 5779 5778 5778 5777 5776 5775 5774 5773 5772 5771 5769 5769 5768 5766 5764 5761 5759 5757 5755 5753 5751 5749 5747 5745 5742 5739 5736 5734 5732 5728 5724 5720 5716 5713 5712 5710 5707 5703 5699 5695 5691 5688 5685 5682 5679 5677 5675 5672 5669 5667 5664 5661 5659 5656 5653 5650 5648
Wind_Speed
6 6 6 6 5 5 5 4 3 4 4 4 4 4 4 4 4 4 4 4 4 6 9 9 8 8 9 9 9 9 8 8 8 8 7 6 7 7 8 7 5 4 3 2 1 1 2 2 3 3 3 4 4 4 5 6 6 7 7 8 8 9 9 9 9 9 9 9 8 8 9 9 9 9
6 7 7 6 6 6 6 5 5 5 4 4 4 5 5 5 5 4 4 3 3 2 2 3 4 5 6 7 7 8 8 7 7 7 7 7 7 7 7 7 6 5 3 2 2 2 2 3 3 3 4 4 5 5 5 5 6 6 7 7 8 8 8 8 8 8 9 9 9 9 10 10 10 11
6 7 7 7 7 7 7 6 6 6 6 5 5 5 5 5 5 5 5 5 5 3 1 0 0 1 2 4 5 5 6 7 7 8 9 9 9 9 8 7 6 5 5 4 3 3 4 4 5 5 5 5 6 6 6 7 7 7 7 7 8 8 8 9 9 10 10 10 11 11 11 12 12 12
7 6 7 7 8 7 7 6 6 7 7 6 6 6 6 6 6 5 6 6 7 7 7 5 4 4 5 5 5 5 6 8 9 10 10 10 10 10 10 9 7 6 6 6 6 5 5 4 5 6 6 7 7 8 9 9 9 9 9 9 9 10 10 11 11 12 12 12 12 12 13 13 13 13
7 7 6 7 7 7 6 7 7 6 6 7 7 7 6 6 6 6 6 6 7 8 9 9 9 9 9 9 9 9 9 10 11 12 12 11 10 10 10 10 8 7 7 7 8 9 7 6 6 6 7 8 8 9 10 11 11 11 11 11 12 12 12 12 13 13 13 14 14 14 14 14 14 15
8 7 6 6 7 7 7 8 9 7 6 7 8 8 7 6 7 7 6 6 6 7 9 10 10 10 11 12 12 11 11 11 12 14 15 14 12 11 10 10 9 9 9 8 9 10 10 9 8 8 9 10 10 11 11 11 12 12 12 12 13 13 14 14 14 15 15 15 15 15 16 16 16 16
9 9 8 8 7 7 7 8 9 8 7 7 8 8 8 7 7 8 8 7 7 6 8 9 10 11 13 14 14 14 13 13 14 16 16 15 14 12 11 10 10 11 11 11 11 11 11 11 10 10 11 12 12 12 12 13 13 13 13 13 14 14 14 15 15 15 16 16 16 17 17 17 17 17
12 12 12 11 8 8 9 8 8 9 8 7 8 9 10 9 9 9 9 10 9 8 8 9 10 11 12 14 15 15 15 16 16 16 16 15 14 13 12 11 11 12 13 13 13 12 12 12 11 12 13 14 14 14 14 14 14 14 15 15 15 16 16 16 16 17 17 17 18 18 18 18 18 18
15 14 12 11 9 9 10 9 9 10 10 8 9 10 11 11 11 10 10 10 11 10 10 10 10 12 13 14 15 16 16 17 17 17 16 15 14 14 13 12 12 14 15 14 14 14 14 14 13 13 14 15 15 16 16 16 16 16 17 17 17 18 18 18 18 19 19 20 20 20 20 20 20 19
16 14 12 12 12 11 11 10 10 11 11 11 10 11 12 13 13 12 11 11 11 12 12 12 12 12 13 14 15 16 17 18 18 18 17 17 16 15 15 15 15 15 16 15 15 14 15 15 15 15 15 15 16 17 17 17 17 18 19 19 20 20 21 21 21 21 21 21 22 22 22 22 22 21
16 15 13 13 14 13 12 12 12 12 13 14 12 12 13 14 15 15 13 13 13 13 13 14 14 14 14 15 16 17 17 18 18 18 18 18 18 17 17 17 17 16 16 16 15 14 15 16 16 16 15 16 17 17 18 18 19 20 21 21 21 22 23 22 23 23 24 23 24 24 24 24 23 23
17 16 15 15 16 16 14 14 15 16 15 14 14 14 14 15 16 16 16 15 14 14 14 15 16 16 15 15 16 16 17 18 18 18 18 18 19 19 18 18 18 17 16 15 15 15 17 18 19 18 17 17 18 19 19 19 19 20 21 22 23 23 23 23 24 25 25 25 26 27 26 25 25 24
19 18 17 18 18 17 16 16 18 18 17 16 16 16 15 15 15 17 18 17 17 17 17 17 17 18 18 18 17 17 17 18 19 19 19 19 19 19 18 17 16 15 14 14 16 17 18 20 20 20 20 20 21 22 22 22 22 22 22 22 22 22 24 25 25 27 28 28 28 28 27 27 26 26
20 19 19 20 21 20 19 19 19 20 19 19 19 18 16 15 16 17 19 19 19 19 19 19 19 19 20 20 19 18 18 18 19 19 20 20 19 19 19 17 16 15 16 17 19 19 19 20 20 21 21 21 22 24 25 25 25 25 24 23 21 21 22 22 24 27 29 29 28 29 28 29 28 27
22 21 21 22 22 22 21 21 20 21 22 22 21 20 18 17 18 19 20 20 21 21 21 21 21 20 21 21 19 19 19 20 20 19 18 19 19 20 20 19 18 19 20 22 23 23 23 23 23 24 24 25 25 26 26 25 24 24 24 24 23 23 22 21 23 26 27 27 27 27 28 29 29 27
23 23 23 24 23 23 23 22 21 21 22 22 22 21 20 20 22 22 22 23 23 23 23 23 23 22 22 22 21 20 21 22 22 20 19 20 21 22 22 22 22 23 24 26 27 28 28 28 27 28 28 28 27 27 26 26 25 25 25 27 27 26 25 24 25 26 27 28 29 29 30 31 31 31
25 25 25 25 24 24 23 23 22 23 23 23 23 23 23 24 25 25 25 25 25 25 26 25 25 24 23 24 24 24 24 24 24 23 23 24 26 26 26 26 26 26 27 28 29 30 31 31 31 30 29 28 28 27 26 26 27 28 29 31 32 32 30 29 30 31 31 33 34 34 35 37 38 38
27 27 27 27 26 25 25 25 25 25 25 25 24 25 26 27 28 27 27 27 27 28 27 27 26 25 25 25 26 26 26 27 27 26 25 27 28 29 29 30 30 29 30 31 32 32 33 32 31 30 29 28 28 29 29 30 31 33 33 33 34 35 34 34 35 35 36 36 37 38 39 40 42 43
29 29 30 30 29 28 27 28 28 28 28 28 28 28 29 30 30 29 29 29 29 29 29 28 27 27 27 27 28 28 28 29 30 30 30 30 30 31 31 32 32 31 31 33 34 33 32 32 31 29 29 30 31 33 34 35 36 37 37 37 36 36 36 37 38 39 39 38 39 40 40 42 43 45
32 32 32 32 32 31 30 30 30 31 31 31 31 32 32 32 31 31 31 31 31 31 30 29 29 29 29 29 29 30 30 31 32 34 35 34 34 34 34 33 33 33 33 33 33 32 32 33 33 33 34 35 36 37 38 40 40 41 41 39 37 36 37 39 40 40 40 40 42 43 44 45 46 47
35 34 34 34 34 34 33 32 33 33 33 34 34 34 34 34 33 33 33 32 32 31 31 31 31 31 32 32 32 32 33 33 34 35 35 35 36 36 36 35 35 34 33 32 31 31 31 32 33 33 34 34 35 37 39 40 40 41 40 39 38 39 40 41 42 42 42 43 45 46 46 46 47 48
38 38 37 37 37 36 35 35 35 36 36 36 36 37 36 36 35 35 34 33 32 32 32 33 34 35 35 36 35 35 35 35 35 35 35 35 36 37 37 36 34 32 31 29 28 28 28 29 30 30 30 31 32 34 35 36 36 36 36 36 37 38 39 39 40 41 42 43 44 44 45 46 47 49
38 39 38 38 38 38 38 38 37 37 37 38 38 39 38 38 37 36 35 34 33 33 34 35 36 37 38 39 38 38 38 37 36 35 34 33 34 34 34 32 30 29 28 27 27 27 27 28 28 29 29 29 30 31 32 32 32 31 31 32 33 34 36 38 39 40 41 42 43 45 46 47 48 49
39 38 38 39 39 39 40 40 39 37 38 38 38 39 39 39 39 38 36 36 35 34 34 35 36 37 38 38 38 37 37 36 35 34 31 29 28 28 28 28 27 27 27 27 28 27 27 27 27 27 27 27 27 28 29 29 30 29 29 30 32 34 35 36 37 37 38 39 40 41 42 42 42 43
41 39 38 38 40 42 42 41 40 38 36 35 36 39 41 41 40 39 38 37 35 34 34 34 35 36 36 36 36 36 35 34 32 29 27 26 26 26 27 26 27 27 27 27 26 26 26 25 25 24 24 24 24 25 26 26 27 27 27 29 31 32 33 34 34 35 36 37 37 37 38 38 39 39
42 42 40 38 42 45 43 41 41 40 36 33 33 35 37 37 37 38 37 35 33 33 34 35 36 35 34 34 35 36 36 32 28 26 25 26 27 27 26 26 27 27 26 25 23 22 22 22 22 22 22 23 23 24 25 26 27 27 27 29 31 32 34 35 35 36 37 38 38 39 39 40 41 42
40 40 39 39 43 46 43 40 39 38 35 34 33 33 32 32 32 33 33 32 33 35 36 37 36 35 35 35 36 36 35 31 27 26 26 26 26 26 25 25 25 24 23 22 21 20 20 20 21 22 23 24 24 25 26 28 29 30 30 32 33 35 36 37 38 39 40 41 42 42 43 44 45 46
39 39 40 40 43 45 43 40 38 35 33 32 32 30 28 27 27 29 32 35 38 39 39 38 38 37 36 35 35 35 33 30 28 27 26 25 25 24 23 22 21 20 20 19 19 20 21 21 23 24 25 26 27 28 29 30 32 33 35 36 37 38 40 41 42 43 44 45 45 46 47 48 48 49
38 39 41 44 45 45 42 38 37 34 31 29 29 30 30 31 33 35 37 39 39 39 38 37 36 35 34 33 34 34 32 31 31 29 26 24 23 22 21 19 19 19 20 20 21 22 23 25 26 28 29 30 31 32 33 34 35 37 38 40 41 42 43 44 45 47 48 49 49 50 50 51 52 53
37 38 40 41 41 41 37 30 28 29 30 31 32 33 35 37 38 38 37 37 37 37 36 35 33 33 32 32 33 32 30 29 28 25 22 21 20 19 19 18 18 19 20 22 23 25 26 27 29 31 32 33 34 35 37 38 39 40 41 42 44 45 45 46 47 49 50 51 52 53 54 54 55 56
29 38 44 39 31 30 30 27 27 30 32 34 34 32 33 35 37 37 36 35 35 33 32 31 29 28 27 26 24 22 20 19 17 16 15 15 16 17 17 18 19 20 22 24 25 26 28 30 31 33 35 36 37 39 40 41 42 43 44 45 46 47 47 48 49 50 52 54 55 56 57 58 58 59
19 27 36 32 21 20 22 24 27 31 33 33 34 35 36 37 37 35 33 30 27 26 25 23 21 19 17 15 14 12 12 11 11 11 11 13 15 17 18 20 22 24 25 27 28 29 31 32 34 35 37 38 40 41 42 43 44 45 46 47 48 49 50 51 52 53 55 56 57 58 59 60 61 62
18 18 23 24 22 23 23 22 24 28 31 33 35 35 35 35 33 29 25 21 19 17 16 14 12 10 9 9 8 8 8 9 10 11 12 14 16 18 20 22 24 26 27 30 31 32 34 35 36 37 38 40 41 42 43 45 46 47 48 49 51 52 53 54 55 56 57 58 59 59 59 60 61 62
31 25 28 30 28 29 31 28 27 28 30 31 30 27 27 27 25 21 17 14 11 9 8 7 6 7 7 7 8 8 9 11 12 14 15 17 19 22 23 25 26 28 28 30 33 34 35 37 38 39 40 41 43 45 46 47 49 50 51 52 54 55 56 57 58 59 59 59 59 60 60 61 61 62
42 40 42 37 28 27 31 30 28 27 25 24 23 22 21 20 16 12 9 7 6 5 5 5 5 6 7 9 10 11 13 14 15 17 18 20 23 25 27 28 29 30 31 32 34 35 36 38 39 40 42 43 45 47 48 49 50 51 52 54 55 56 57 58 59 60 60 60 60 60 61 61 61 61
42 41 36 28 20 19 21 20 19 17 16 16 16 15 13 10 7 5 4 4 4 5 5 6 6 7 9 11 13 15 16 17 19 20 21 23 25 28 30 30 31 32 33 34 35 37 38 40 41 42 44 45 46 48 49 49 50 51 52 53 54 55 56 57 58 59 59 59 60 60 61 61 61 61
29 25 19 14 10 9 10 10 9 9 9 9 8 7 5 4 4 3 3 3 4 5 7 8 9 10 12 14 16 18 19 20 22 23 24 25 27 29 31 32 32 34 35 36 37 39 40 42 43 44 45 47 47 49 50 50 50 51 51 52 52 53 55 56 57 57 58 58 58 59 59 60 60 59
14 10 7 5 4 4 4 5 5 5 5 4 4 4 3 3 3 4 5 6 7 8 10 11 12 14 16 18 19 21 22 23 24 25 26 27 28 30 32 33 34 35 37 38 39 41 42 44 45 46 47 48 48 49 50 50 50 50 50 51 51 53 54 56 56 57 57 57 57 57 57 57 57 56
4 3 3 3 3 3 3 3 3 3 3 3 3 3 4 4 6 7 8 9 10 12 13 14 16 17 19 20 22 23 25 26 26 27 28 29 30 31 33 35 36 37 38 39 41 42 44 45 46 46 47 48 49 49 50 50 50 51 51 51 52 53 55 56 56 56 56 56 56 55 54 52 51 51
4 4 4 3 3 2 2 2 3 3 3 4 5 6 6 8 9 11 12 13 14 15 16 17 19 20 21 22 23 25 26 27 28 28 29 31 32 32 34 35 37 39 40 41 42 43 45 46 46 47 48 48 49 50 50 50 51 51 51 52 53 54 55 56 56 55 54 53 51 49 48 46 46 46
3 3 3 2 1 2 3 3 4 4 5 7 8 9 10 11 12 14 15 16 16 17 18 19 21 22 22 23 25 26 27 28 29 29 30 32 33 34 35 36 38 39 41 42 42 43 44 45 46 46 47 48 48 49 49 49 49 49 50 51 52 53 53 52 51 50 48 46 45 44 43 42 42 42
2 2 1 2 3 4 5 7 8 8 9 10 11 12 13 14 15 16 16 17 18 19 20 21 22 23 24 25 25 26 28 29 30 31 32 33 34 35 36 37 39 40 41 42 42 43 44 44 45 46 46 47 47 47 48 48 48 49 50 51 51 50 49 47 45 44 43 42 41 40 40 40 40 40
3 3 4 5 6 7 9 10 12 12 13 13 14 15 16 16 17 17 18 18 19 20 21 22 23 24 25 26 26 27 29 30 31 32 33 34 35 36 37 38 39 40 41 42 42 42 42 43 44 45 45 45 46 46 46 47 48 49 49 49 48 46 45 44 43 42 41 40 39 39 39 39 40 40
6 7 8 8 10 11 12 13 14 15 15 16 17 18 19 19 19 19 20 20 21 22 22 23 24 25 26 27 27 28 29 31 32 33 34 35 36 37 38 39 39 40 40 41 40 40 41 42 43 44 44 45 45 45 45 47 48 48 47 46 44 43 42 42 41 40 39 38 39 39 40 40 40 40
9 10 11 12 13 14 14 15 16 17 17 18 19 20 20 20 20 21 21 22 22 22 23 24 24 25 26 27 28 29 30 31 33 34 35 36 37 37 38 39 40 40 41 41 41 41 41 42 43 44 44 44 44 44 45 46 46 45 44 42 41 40 39 38 37 37 38 38 39 39 39 39 39 39
Wind_Direction
219 223 228 238 241 225 221 238 258 271 291 307 313 327 342 344 351 9 29 32 22 17 12 7 17 37 40 40 52 59 56 54 53 50 46 39 32 32 31 32 39 45 51 60 82 130 159 174 184 192 198 201 206 211 216 220 223 227 230 233 236 238 239 241 242 243 243 244 246 248 248 249 250 252
225 228 231 235 236 234 232 243 260 270 281 289 299 315 323 326 335 343 2 22 41 68 48 357 10 29 22 17 27 35 33 32 35 35 32 28 26 21 16 14 13 9 5 354 327 300 274 250 236 231 231 228 224 222 225 232 238 244 248 249 249 249 248 247 247 248 252 255 258 261 264 266 267 267
235 233 236 239 241 240 238 242 256 267 270 270 277 293 302 308 314 324 337 348 356 11 33 200 263 351 350 355 6 13 11 9 11 13 13 16 14 7 358 353 348 341 332 323 316 306 295 284 273 264 258 256 253 248 239 232 230 234 242 249 253 255 256 256 257 258 260 262 264 266 267 268 270 270
244 242 242 244 248 250 252 257 263 269 271 268 268 274 285 295 302 314 326 335 343 346 349 354 350 335 333 341 345 346 348 352 354 353 354 0 1 354 345 338 329 319 311 305 301 295 287 282 281 277 270 265 263 262 259 254 246 240 239 241 246 252 256 259 262 264 265 266 267 268 268 269 270 270
247 249 249 252 260 266 273 278 276 275 278 276 273 274 279 286 292 299 311 327 338 340 340 345 348 343 339 339 340 339 340 344 345 340 338 342 343 339 333 330 321 310 303 299 295 291 284 274 271 275 275 272 266 263 263 262 260 256 252 249 249 250 253 256 259 261 262 264 265 265 267 267 268 269
248 253 259 267 276 278 277 282 282 275 270 272 274 276 277 276 283 291 300 312 322 328 331 333 335 335 331 329 330 331 331 333 332 331 329 327 325 320 313 310 307 303 299 296 293 291 286 277 272 274 276 276 273 270 268 266 265 264 262 261 259 258 258 258 258 260 261 261 262 263 264 265 266 267
246 248 247 246 254 258 256 266 278 277 270 270 272 274 275 273 277 286 293 298 301 310 318 321 321 322 321 321 323 325 325 324 324 326 326 323 319 315 308 302 300 301 300 297 294 291 285 280 283 285 282 277 273 272 270 268 267 267 266 265 264 263 263 262 262 262 262 263 264 264 264 265 267 268
239 237 237 238 242 247 248 254 265 269 266 265 268 272 275 274 274 280 287 292 296 300 304 308 310 311 312 313 316 318 319 319 320 322 325 325 321 316 313 309 305 302 299 296 293 289 283 282 286 289 286 280 274 271 271 271 270 269 268 268 267 266 265 265 264 264 264 265 265 265 266 266 267 268
237 237 241 245 245 238 239 244 251 257 257 253 257 266 270 272 273 277 282 287 290 293 295 297 300 302 303 305 308 311 312 314 314 315 318 321 319 313 311 311 308 304 301 298 294 288 282 282 286 288 287 284 277 272 271 270 270 270 270 271 270 269 266 265 265 264 264 265 265 264 265 265 265 266
241 244 247 250 248 242 241 245 250 260 267 263 258 262 267 271 274 276 278 281 285 289 292 294 295 297 299 301 303 304 306 308 309 310 311 312 311 308 305 304 304 305 306 306 300 289 283 286 289 288 285 284 280 275 273 271 269 269 270 271 272 270 267 266 266 266 265 265 266 267 268 268 268 270
242 247 251 253 251 249 252 257 260 266 273 273 271 271 273 276 279 280 279 280 281 284 289 292 294 295 296 299 299 300 302 303 304 305 306 305 304 302 300 298 298 300 303 304 301 293 290 293 294 290 286 285 283 280 277 276 276 274 273 273 272 270 268 267 267 267 266 266 267 269 269 270 271 273
243 247 252 255 255 254 257 261 262 263 267 270 272 271 271 274 279 281 281 281 281 282 285 288 292 294 294 295 296 296 298 299 300 301 301 301 301 300 298 295 293 292 295 297 297 294 292 290 290 291 290 289 286 281 279 280 280 279 279 279 276 272 269 267 268 268 267 267 267 267 268 269 270 272
245 247 250 255 259 262 263 263 262 262 265 271 274 270 268 270 275 278 280 280 281 281 283 285 288 291 292 291 291 291 292 294 297 298 296 296 298 299 298 296 293 289 288 294 300 300 296 292 289 289 287 286 284 282 282 283 281 281 282 283 280 276 271 269 270 270 268 267 266 265 265 266 267 269
249 250 252 256 260 263 264 264 263 263 265 269 272 272 272 272 274 275 276 278 279 280 283 285 286 289 290 290 290 289 289 291 294 294 293 292 293 294 295 297 296 290 286 292 298 299 297 294 289 286 283 281 281 280 281 282 282 281 280 280 281 280 277 275 274 271 267 266 266 267 267 266 265 267
254 254 255 257 260 263 263 262 262 263 264 266 268 271 274 276 275 276 278 279 280 282 284 286 287 288 289 288 288 288 289 291 292 291 290 290 292 292 292 293 293 291 290 292 294 294 293 290 285 282 281 280 280 281 281 282 282 282 282 281 281 280 276 272 269 268 269 271 272 272 271 269 268 268
256 256 257 258 260 262 264 264 263 263 264 266 269 272 275 276 277 278 280 282 283 285 286 287 288 288 288 287 286 286 287 288 288 286 284 286 288 289 289 289 290 291 291 292 292 292 292 290 286 283 280 279 280 281 281 280 280 282 284 285 285 282 275 268 266 270 274 276 275 274 273 273 273 273
255 255 257 258 258 260 263 265 265 265 267 269 271 274 276 277 279 281 282 283 284 285 286 286 286 286 286 285 285 286 286 286 284 282 281 283 285 285 285 285 286 288 289 289 289 289 290 289 288 285 280 277 277 277 278 278 279 281 283 285 285 284 278 273 272 274 275 276 276 275 274 274 275 275
256 256 257 258 258 259 262 265 266 267 269 270 272 274 276 277 279 281 283 283 283 285 285 284 284 284 284 284 285 286 287 287 286 285 283 283 283 283 283 283 284 285 286 287 287 288 288 287 285 284 281 277 275 276 276 278 279 281 281 281 282 283 281 278 277 277 276 276 277 276 275 274 275 275
256 256 258 259 259 260 261 264 267 269 270 272 273 274 275 276 279 281 282 282 283 283 283 282 282 283 283 284 286 288 289 289 287 287 286 284 282 282 282 283 284 286 286 286 286 286 285 282 280 277 275 274 276 277 278 279 280 279 278 277 276 276 277 277 276 277 277 276 275 275 274 274 274 275
258 258 259 260 261 263 263 264 266 268 270 271 272 273 274 276 278 280 280 280 280 280 279 278 279 281 284 286 288 290 290 290 288 287 286 285 283 284 284 285 286 287 286 284 282 279 276 276 275 272 269 270 272 274 274 274 273 274 274 274 273 273 273 273 274 275 275 274 273 272 271 270 270 271
261 261 261 261 263 264 265 266 267 268 269 270 271 273 274 276 277 278 278 278 278 278 277 278 279 282 284 285 286 287 288 289 289 289 287 286 285 284 284 285 286 286 285 282 278 275 273 272 273 273 272 273 273 272 271 271 270 271 271 270 269 270 270 271 271 272 272 272 273 272 272 271 270 271
263 264 264 264 265 266 267 267 267 267 268 269 270 272 273 274 275 275 275 276 277 277 276 277 280 282 283 283 284 286 286 286 286 286 285 284 284 283 283 283 283 282 280 277 274 273 272 271 272 273 274 274 274 274 274 274 273 272 272 271 270 271 271 271 271 270 270 271 272 272 272 271 270 270
263 264 265 265 266 267 268 267 267 268 268 269 270 272 272 273 273 274 275 275 275 276 277 278 280 282 283 284 285 285 285 285 284 284 283 282 281 280 280 280 279 279 278 276 274 273 271 271 272 273 274 274 275 275 275 275 275 275 275 276 276 276 275 275 274 274 273 272 272 272 272 271 271 270
261 261 263 266 267 267 267 267 267 267 268 269 271 272 272 272 272 273 273 274 275 276 278 280 282 284 285 285 285 284 284 284 284 284 283 281 279 278 276 276 277 278 277 276 275 274 272 272 273 275 276 277 277 277 277 277 278 278 278 278 277 277 277 277 277 277 276 275 275 274 275 275 276 276
259 261 264 267 267 266 265 265 265 265 267 270 272 272 272 272 272 273 272 272 273 273 276 279 282 284 286 287 286 285 284 283 283 283 283 282 280 276 272 272 275 277 276 274 274 274 274 275 277 279 280 281 281 282 282 281 281 281 280 280 279 279 280 280 280 280 280 280 280 281 281 282 282 282
261 263 264 264 264 264 264 263 264 265 266 267 267 267 269 271 272 272 272 271 270 272 276 281 282 283 285 287 288 287 284 281 280 280 280 278 276 273 270 272 275 276 275 274 274 275 276 279 281 283 284 284 284 284 285 285 285 284 284 284 283 283 283 283 283 283 283 284 284 284 284 284 284 284
265 267 265 260 259 262 264 262 260 260 261 262 263 265 269 271 270 269 270 272 274 277 280 280 280 280 281 283 283 281 277 275 274 275 272 270 269 269 270 272 275 276 275 275 277 279 282 283 284 285 284 284 284 285 285 286 286 286 285 285 285 285 285 285 286 285 285 285 285 285 285 284 284 284
266 266 264 259 257 259 260 257 255 258 261 263 265 266 267 267 266 267 272 276 278 278 277 275 274 274 275 275 274 271 268 267 269 268 265 263 263 264 265 268 270 272 274 277 281 283 285 286 286 286 285 285 286 286 286 286 287 286 286 286 286 286 286 286 286 286 286 286 286 285 285 285 284 284
264 263 259 257 258 259 261 260 258 259 261 261 261 263 263 264 267 269 271 273 273 273 274 273 271 269 267 265 263 260 256 256 257 257 256 257 258 259 262 265 270 274 278 281 283 284 285 286 286 286 286 286 286 286 286 286 286 286 286 286 286 287 287 287 288 288 288 288 288 287 287 286 286 286
271 266 256 255 259 260 261 260 253 250 255 259 261 261 259 259 262 265 266 267 269 272 273 272 268 264 261 258 257 256 254 254 255 256 259 262 264 266 269 271 274 277 279 280 281 282 283 284 285 285 286 286 287 287 287 287 287 287 287 287 287 287 288 288 288 288 288 288 288 287 287 287 287 287
251 250 241 241 252 254 252 252 249 252 258 260 257 255 254 256 261 265 268 271 274 275 274 270 266 263 260 260 261 261 261 262 264 266 268 272 275 278 281 282 282 282 281 281 282 284 285 286 287 288 289 290 290 290 290 290 289 289 289 289 289 289 288 288 287 287 287 286 286 286 286 286 286 286
221 242 231 230 242 248 250 257 263 266 267 261 257 260 265 268 272 273 274 275 275 274 270 267 265 263 261 263 265 267 269 270 272 273 275 277 280 282 285 287 287 287 288 288 288 288 289 289 290 290 290 291 290 290 290 290 290 289 289 289 289 289 288 288 287 287 286 286 286 286 286 286 285 285
240 257 243 249 262 261 261 264 264 268 270 268 269 272 273 272 272 270 269 270 268 266 264 262 262 262 261 262 264 267 273 276 276 278 278 277 278 280 282 284 285 286 288 290 291 290 290 291 291 291 291 291 291 291 291 291 291 291 291 291 290 290 289 289 288 288 288 287 287 287 287 287 286 286
246 258 266 273 270 262 262 262 259 261 265 267 270 270 265 263 263 262 263 265 260 257 256 253 257 262 265 269 270 269 273 276 278 280 281 283 285 286 286 286 286 286 288 289 290 290 291 291 292 292 292 293 293 293 292 293 293 293 292 292 291 291 290 290 290 289 289 289 290 289 289 289 288 288
247 261 273 277 269 257 257 256 254 255 256 254 254 252 251 255 257 257 258 252 240 237 233 231 244 259 271 281 285 285 286 287 288 288 289 290 291 292 291 291 290 290 291 291 291 292 292 292 292 293 293 293 293 292 293 293 293 293 293 293 293 293 292 292 291 291 292 291 291 291 290 290 290 290
250 260 268 270 261 249 245 243 243 243 241 241 244 246 249 253 252 245 237 229 231 240 242 247 260 272 281 287 289 290 291 293 293 294 294 294 294 294 294 294 293 293 294 294 294 294 294 294 294 294 293 293 293 293 294 294 294 294 294 294 294 293 293 293 293 293 293 294 293 293 293 293 293 293
254 258 260 256 245 232 230 234 237 236 237 241 243 243 243 239 231 231 233 242 261 272 275 282 289 292 294 294 293 293 294 294 295 295 295 295 295 294 294 294 295 295 296 296 296 295 295 295 295 295 295 295 295 295 295 296 296 296 296 296 296 295 295 295 295 295 296 296 296 296 296 296 295 295
255 254 249 234 213 207 212 219 221 225 233 234 230 232 242 249 261 270 273 279 288 293 296 299 300 299 298 297 295 294 294 294 295 296 296 296 296 296 296 296 296 297 297 297 297 297 297 297 297 297 297 297 297 297 297 298 298 298 299 299 299 298 298 298 298 298 298 298 298 298 297 297 297 297
227 210 191 166 159 170 188 201 214 226 234 241 256 271 281 287 291 291 292 296 300 301 301 301 299 298 297 296 296 296 296 297 299 299 299 298 298 297 298 298 298 299 299 299 300 300 299 299 299 299 299 299 299 299 300 300 300 300 301 300 300 300 300 299 299 299 299 299 299 299 299 299 299 298
154 150 145 142 148 175 209 233 249 260 276 295 302 304 305 305 304 304 304 304 304 303 301 299 297 296 296 297 297 298 298 299 299 299 298 298 299 299 300 300 301 301 302 302 302 302 301 301 300 300 300 300 300 300 300 300 301 301 301 300 300 300 299 299 300 300 300 300 301 301 301 301 300 300
150 144 141 151 185 234 261 274 280 288 298 304 305 305 306 305 303 303 302 301 301 300 298 296 296 297 298 298 298 298 299 299 299 300 300 301 301 302 302 302 303 303 303 303 303 303 302 302 301 301 301 301 302 302 302 301 301 301 301 300 300 299 299 300 300 301 301 302 303 303 302 301 301 300
177 180 206 245 269 284 293 297 299 302 304 305 304 303 302 299 298 298 297 297 296 296 296 297 298 298 298 297 298 299 300 301 301 302 303 303 304 304 304 304 304 304 304 304 304 304 304 304 304 304 304 304 304 304 304 303 303 303 302 302 301 302 302 302 303 303 304 304 304 303 303 302 303 303
249 261 270 281 288 292 294 297 300 301 302 302 301 300 298 297 297 297 296 295 295 296 297 297 298 298 299 300 302 303 303 304 304 305 305 305 305 305 305 305 305 305 304 304 305 305 305 305 305 305 305 306 306 306 306 306 306 306 305 305 305 305 305 305 305 305 305 305 304 304 304 304 304 304
276 281 283 285 287 289 292 294 297 298 299 298 298 297 298 299 299 298 297 296 296 297 298 298 299 300 301 302 303 304 304 304 305 305 305 305 305 305 305 306 306 306 305 306 306 307 307 308 308 307 307 308 309 309 309 309 309 308 308 307 307 307 307 307 306 307 307 306 306 306 306 306 306 306
281 282 282 283 285 288 290 291 293 295 296 295 295 295 296 297 297 296 295 295 296 297 298 298 299 299 300 301 302 302 303 303 304 304 305 306 306 307 308 308 308 309 308 308 309 309 310 310 309 309 308 309 310 311 311 311 310 309 309 308 308 308 308 308 308 308 308 308 308 307 307 307 307 307